Theta_e
318 317 317 316 314 313 313 312 311 310 308 325 323 325 320 312 309 318 321 322 318 313 306 308 306 304 304 308 306 308 306 305 306 306 307 306 307 306 305 304 304 304 305 303 303 303 300 301 301 302 303 302 304 306 307 307 307 307 307 307 311 313 305 301 302 307 307 308 309 310 309 310 308 309 309 308 305 306 304 304 307 304 305 303 304 302 309
318 317 317 316 314 312 313 312 311 311 309 318 322 325 314 313 312 314 320 324 318 310 302 301 303 303 306 305 304 307 306 306 305 305 306 306 305 305 305 306 308 304 307 305 302 305 299 302 302 301 304 302 307 306 307 309 308 308 307 306 310 303 308 303 299 299 301 303 306 306 309 309 306 306 308 309 309 309 308 309 311 304 305 305 303 298 310
318 318 317 315 314 313 312 312 311 311 310 312 321 319 318 313 313 314 314 319 315 306 306 305 303 303 303 303 302 303 304 306 306 307 305 308 307 306 304 306 307 305 307 304 305 305 302 300 303 304 304 303 307 307 307 309 309 312 313 316 316 306 305 304 296 294 292 293 294 296 300 304 306 307 307 308 308 307 306 302 305 298 306 307 304 304 320
318 318 318 315 314 313 312 312 312 311 310 307 321 323 319 309 305 308 310 313 312 310 311 308 305 303 303 302 302 303 302 305 307 308 306 308 308 307 307 307 308 305 304 302 302 302 305 302 301 304 302 304 305 307 307 307 308 314 314 313 314 306 308 308 304 300 298 300 302 302 306 305 303 305 306 308 308 310 310 308 303 300 306 306 308 308 317
318 319 318 316 314 313 312 312 312 311 310 308 321 324 319 312 306 306 304 309 309 307 309 306 306 304 305 302 303 301 302 302 305 308 304 307 307 307 306 305 304 303 303 302 302 303 302 305 304 303 302 304 305 307 307 307 310 313 314 311 311 308 303 304 306 304 303 303 303 304 306 305 305 305 306 308 309 309 308 305 303 311 306 300 311 316 312
319 319 319 317 314 313 313 312 311 311 310 306 320 318 318 306 313 314 314 306 301 304 304 307 305 306 306 304 305 302 302 302 301 305 306 307 307 304 305 306 305 305 304 304 301 302 302 303 301 303 304 304 305 305 306 306 313 312 308 310 310 305 301 304 304 302 304 304 304 306 306 306 307 308 308 309 310 309 307 307 312 314 305 301 315 318 311
319 319 320 318 315 314 313 312 311 310 309 310 326 319 317 318 316 316 317 309 308 311 309 308 305 305 305 304 304 301 301 301 303 303 303 304 304 306 302 302 304 305 306 306 302 305 299 299 304 305 303 303 304 302 304 306 308 307 308 310 312 309 302 306 305 303 303 304 304 305 305 306 307 307 309 310 311 312 312 312 315 314 317 314 313 319 316
319 319 319 319 316 314 314 312 311 311 308 317 326 322 317 315 313 310 317 315 311 311 308 306 306 304 307 304 303 303 301 301 303 304 303 301 302 306 302 302 304 305 305 307 303 303 305 305 302 305 306 303 305 303 303 303 307 308 305 306 312 306 301 304 305 304 302 303 305 305 304 303 304 306 309 310 311 313 314 314 315 316 315 316 316 320 321
319 319 319 319 317 314 314 313 311 310 310 326 324 320 323 321 323 324 315 307 311 310 307 306 306 304 305 303 303 303 302 302 304 304 306 305 304 304 302 304 305 306 305 305 304 305 306 306 305 305 306 302 304 305 304 306 304 305 305 306 308 306 304 306 305 300 300 303 303 303 304 303 303 305 307 310 310 309 312 314 316 316 314 318 318 317 319
318 319 319 319 317 315 314 313 312 309 310 326 323 318 328 326 325 327 323 309 312 307 306 307 305 302 305 305 304 303 303 304 305 303 305 306 308 307 306 305 305 305 304 303 304 306 306 306 307 308 308 309 308 308 307 307 305 304 305 307 304 305 304 302 302 299 298 303 303 302 302 302 300 302 306 310 311 314 316 317 318 318 318 315 313 318 325
318 319 319 319 318 317 315 314 313 309 318 322 322 319 323 323 324 325 322 309 307 308 306 305 304 306 306 306 304 306 304 304 304 303 302 305 305 307 307 306 305 304 303 305 309 309 308 309 309 310 309 308 307 308 308 307 307 306 305 305 305 306 304 302 305 298 299 301 302 302 298 292 295 305 312 313 309 311 311 312 316 318 320 318 319 322 326
318 319 319 319 319 317 315 315 313 310 311 322 322 322 322 325 327 326 318 305 305 308 306 304 305 305 305 305 305 304 303 304 304 307 303 304 305 306 306 307 309 304 306 312 311 310 310 310 309 310 308 308 307 307 307 306 306 309 307 304 304 304 303 302 306 300 299 303 302 297 291 293 302 307 308 310 312 311 315 317 318 319 321 321 321 321 324
318 318 319 319 319 317 315 315 314 312 309 317 324 321 324 327 324 324 320 312 304 306 304 305 307 306 306 305 305 306 305 305 306 306 306 306 304 305 305 306 305 306 311 310 309 308 305 304 305 305 304 305 305 306 305 305 305 306 307 307 304 303 303 302 301 302 303 300 297 289 292 302 304 303 307 312 312 312 313 313 316 320 320 322 321 323 325
318 318 318 319 319 318 316 315 314 313 310 311 322 325 326 327 323 324 322 313 306 309 309 306 306 305 306 305 305 305 305 305 307 308 305 306 306 305 306 307 309 311 311 312 310 308 304 304 301 301 301 303 303 301 304 304 304 304 304 306 306 304 305 303 299 304 295 297 297 297 304 301 302 302 304 307 306 307 307 308 311 319 323 323 322 324 324
317 318 318 318 319 319 317 315 314 314 312 308 320 326 326 327 326 323 326 321 307 309 311 303 305 306 306 305 306 304 305 306 305 305 308 309 307 307 308 309 311 312 312 311 307 307 304 303 298 297 299 297 293 297 303 301 304 305 305 306 307 308 303 307 301 300 301 297 295 297 297 294 300 304 308 311 310 309 310 309 312 320 323 325 324 323 324
317 318 318 318 319 319 317 315 314 313 312 307 320 325 328 328 328 327 324 321 313 302 307 313 310 308 307 306 307 305 304 306 307 306 306 308 307 308 310 312 312 313 311 308 310 306 304 298 296 296 293 296 301 297 297 301 300 302 304 305 307 306 306 306 302 299 299 297 294 293 290 296 304 306 307 311 312 309 309 307 304 314 323 324 324 323 324
317 318 318 318 319 319 317 315 314 313 312 308 315 321 327 329 327 321 320 321 316 308 314 315 314 312 308 306 307 307 308 306 307 305 304 306 309 309 311 312 312 311 309 308 306 303 300 299 301 299 300 302 294 293 300 298 297 299 302 304 304 302 302 302 300 299 300 298 294 293 299 299 306 308 309 310 312 309 308 295 297 308 321 324 324 324 324
317 317 318 318 319 319 318 316 314 313 312 310 314 318 324 330 329 328 323 316 313 311 314 315 311 308 307 310 307 310 310 309 309 309 307 308 310 309 308 310 307 309 311 307 306 302 300 299 294 294 294 305 306 302 290 295 295 297 297 298 299 300 300 300 298 299 299 297 296 298 301 308 310 310 311 311 311 308 298 293 303 310 314 323 324 324 326
317 317 318 318 318 318 318 316 314 313 313 308 315 321 324 328 330 330 322 317 314 308 313 316 316 314 313 315 315 313 313 313 311 306 306 305 309 310 311 310 311 305 308 306 305 303 300 301 303 301 297 300 302 293 301 294 295 301 300 298 301 300 299 300 300 297 297 298 296 297 301 307 312 313 311 315 308 297 295 308 315 315 316 323 325 323 325
316 317 317 317 318 318 318 316 313 313 312 310 311 317 321 327 329 326 319 315 313 313 313 315 315 314 313 312 310 309 310 311 311 308 306 304 313 311 308 305 310 308 305 308 302 304 301 299 301 302 299 300 302 304 297 300 304 301 301 300 298 299 299 296 296 299 298 298 296 294 289 307 314 313 313 315 307 307 311 314 316 318 318 323 324 325 326
316 317 317 317 318 318 317 315 313 312 312 313 309 317 321 327 327 327 328 323 316 311 311 315 317 317 316 315 317 317 314 310 311 308 310 310 319 312 300 303 307 308 305 305 301 300 304 301 301 302 305 304 303 303 294 297 301 306 306 302 300 306 299 297 300 301 297 296 293 293 304 310 314 313 307 311 312 314 316 315 315 319 323 323 323 324 326
316 316 316 317 317 318 317 314 313 312 312 312 310 317 320 326 327 325 325 325 318 315 315 317 318 319 321 322 323 323 321 317 316 318 312 312 317 313 312 311 310 310 310 311 305 304 305 306 306 302 300 302 305 300 304 297 295 304 307 305 297 308 304 305 299 304 301 299 303 309 313 313 315 314 313 314 316 317 317 317 316 317 322 325 323 324 324
315 316 316 316 317 318 317 315 313 312 311 312 313 319 320 321 324 327 326 325 327 322 321 319 322 321 320 320 323 323 324 324 321 319 318 311 311 312 311 310 310 314 315 314 310 308 308 306 303 307 304 304 303 302 303 301 299 303 301 305 305 309 311 312 309 304 309 310 311 313 314 314 314 315 315 315 316 317 318 319 319 321 323 325 324 323 322
315 315 316 316 317 318 316 314 313 312 311 312 312 316 319 322 323 325 325 320 314 313 314 316 314 311 312 313 318 321 320 320 321 322 322 319 308 310 313 316 317 314 315 321 318 313 311 310 310 308 302 307 306 301 297 298 301 306 303 303 306 310 311 309 304 308 300 297 312 311 311 313 314 315 317 318 317 318 319 321 322 323 324 324 324 324 323
315 315 316 316 317 317 315 314 312 311 311 311 313 318 318 321 325 323 320 311 311 309 305 308 312 317 318 321 321 318 319 322 321 321 318 319 316 310 311 318 321 319 315 318 319 315 312 307 306 304 301 310 309 299 306 301 302 307 301 305 304 305 312 306 307 305 302 307 310 312 313 314 315 315 315 314 317 317 319 322 324 324 325 325 324 324 322
315 315 315 316 317 316 314 313 312 311 311 312 312 316 319 323 324 324 323 322 319 314 307 306 311 318 320 316 315 320 322 321 319 318 319 318 317 317 318 319 319 324 320 318 317 314 310 309 310 309 303 307 311 303 303 310 308 309 305 306 311 311 310 303 308 304 307 311 311 313 314 314 314 315 316 317 317 317 317 320 322 322 322 323 324 324 324
315 315 315 316 316 315 313 312 312 311 311 311 314 319 319 323 325 323 323 323 312 304 307 307 313 315 316 315 320 322 320 318 319 320 319 319 318 320 320 320 318 317 316 315 316 313 311 310 306 305 307 309 311 309 309 307 306 305 304 309 312 308 304 309 306 302 301 303 309 311 305 308 311 313 316 318 319 318 317 316 317 319 320 321 321 321 322
314 315 315 315 315 314 313 312 311 311 311 311 315 319 321 321 326 325 326 326 322 311 307 307 309 314 317 316 320 320 320 318 318 318 318 318 318 318 318 318 318 315 314 312 309 308 307 304 304 311 310 312 307 306 310 312 309 306 305 308 311 306 309 307 303 304 304 309 313 315 314 313 314 314 316 319 320 319 318 317 316 316 317 319 319 319 320
314 314 315 315 314 313 312 311 311 311 310 310 318 320 322 323 325 322 324 327 327 321 314 316 316 312 307 313 320 319 319 318 317 318 317 317 317 317 317 317 316 315 314 314 313 312 309 310 312 309 309 317 309 306 307 302 302 301 307 313 311 316 317 313 314 312 313 314 314 316 316 312 313 316 317 318 320 320 318 319 320 319 318 318 317 318 318
314 314 314 314 313 312 312 311 311 311 311 316 320 321 317 320 325 325 322 325 327 324 315 307 303 308 319 317 318 317 315 316 317 317 317 316 316 317 318 318 317 318 318 315 314 310 311 311 312 314 316 318 311 310 304 305 303 307 312 314 316 316 317 317 318 314 311 316 317 318 317 316 317 318 318 318 319 319 317 317 318 319 319 320 320 319 319
314 314 314 314 313 312 311 311 311 311 311 318 320 314 307 306 320 322 318 325 327 323 319 315 309 314 313 319 321 317 315 315 317 317 317 318 319 318 319 319 319 318 313 314 312 314 313 310 311 313 317 317 314 308 306 305 303 306 311 313 315 315 315 316 318 319 318 318 319 319 318 317 318 317 316 317 318 318 318 318 319 318 318 320 320 320 320
314 314 313 313 312 312 311 310 311 311 314 315 318 314 317 317 322 322 318 319 324 322 316 307 307 307 308 313 318 320 319 318 318 318 319 319 317 319 320 319 317 319 317 314 315 313 311 314 312 313 312 316 311 308 308 305 303 304 312 313 315 316 317 317 317 318 319 319 317 315 313 314 315 314 312 316 317 317 318 317 318 319 319 320 321 321 321
314 313 313 313 312 311 311 310 311 312 316 315 312 311 312 310 310 313 317 322 324 320 319 312 305 308 306 311 317 317 319 317 315 316 315 322 317 319 315 319 319 317 317 315 309 308 314 313 313 310 314 318 311 309 307 305 306 310 312 314 315 316 316 317 317 317 317 318 317 311 310 311 314 316 317 317 316 317 317 316 316 317 317 317 317 318 319
313 313 313 313 312 311 311 311 311 310 311 312 313 316 323 313 316 310 323 325 323 321 319 312 306 305 307 316 309 316 319 312 312 314 311 319 323 316 314 314 317 312 316 311 314 313 314 313 310 310 314 311 313 308 304 307 310 311 313 314 316 316 317 316 316 315 316 317 318 317 317 318 319 319 318 317 317 317 317 316 315 314 315 314 315 316 316
313 313 313 312 312 311 311 311 315 316 318 315 319 323 318 308 313 314 320 326 314 311 310 309 311 305 304 306 305 312 320 315 311 314 310 316 320 315 315 310 313 308 311 318 313 311 309 310 314 308 307 313 309 304 305 308 310 312 313 313 315 316 315 313 314 315 316 318 317 317 317 317 316 314 314 315 315 316 314 315 315 313 312 313 314 315 315
314 313 312 312 310 311 315 312 316 317 316 315 319 320 314 313 314 328 329 329 321 311 306 308 307 304 305 300 301 313 319 313 318 316 317 317 314 319 316 312 307 311 318 313 308 311 309 317 310 304 311 305 303 306 307 310 310 312 312 313 315 315 314 314 314 316 317 317 317 317 316 316 314 314 315 315 315 315 314 313 313 313 312 312 313 314 315
313 312 311 310 313 314 314 316 319 319 319 321 320 319 317 321 327 328 325 323 325 323 313 309 303 303 305 305 311 317 315 306 314 312 314 310 309 315 313 310 305 312 311 309 309 307 312 317 310 305 306 303 306 312 313 314 313 312 313 314 315 316 316 316 316 316 315 315 315 315 314 314 314 315 314 313 314 314 312 311 312 312 311 312 312 312 313
311 310 313 313 313 311 310 313 317 321 319 316 318 319 319 319 313 316 315 312 317 314 311 309 304 309 312 307 303 317 312 309 315 309 310 314 309 309 314 309 308 309 302 305 309 316 313 310 307 304 305 311 313 316 315 315 316 317 317 316 316 317 318 318 317 315 313 312 312 313 313 313 312 313 312 312 313 312 312 313 313 312 312 312 312 312 312
308 313 312 313 313 309 310 317 320 316 319 320 322 315 311 316 312 307 309 311 313 305 311 307 302 308 307 303 308 316 314 309 308 310 305 314 309 304 311 302 310 307 301 303 308 314 304 305 305 305 303 309 310 314 318 317 318 319 319 319 318 319 319 318 317 316 314 312 312 313 313 311 310 311 312 312 312 312 312 312 312 312 312 312 312 312 312
310 307 310 311 311 315 318 317 316 319 321 314 316 313 306 312 304 300 311 302 303 309 309 301 306 309 309 305 307 308 317 312 306 305 306 311 313 306 309 308 310 306 298 300 303 311 303 298 303 302 300 306 308 317 318 319 318 318 319 319 319 320 319 319 318 319 318 317 316 315 315 314 314 313 313 312 311 310 310 311 312 312 312 311 311 311 310
309 311 312 311 317 318 318 320 322 320 314 310 309 309 307 300 308 309 306 303 302 305 312 308 311 307 310 313 312 307 317 320 318 317 312 306 314 312 306 302 310 303 299 299 308 307 305 302 301 298 300 308 310 317 318 316 318 318 319 319 319 319 318 318 318 317 315 314 314 313 313 313 313 313 312 312 311 311 310 310 310 311 312 311 311 311 312
312 313 315 317 318 321 320 318 317 312 311 312 303 295 300 303 307 306 308 300 301 307 309 310 306 306 305 309 310 314 314 322 318 315 310 305 309 306 304 305 306 300 295 305 310 305 303 293 295 297 305 311 318 317 317 317 318 318 317 318 317 317 316 316 315 315 315 314 314 314 314 313 313 312 312 311 311 311 310 310 310 311 311 311 311 311 311
308 311 315 316 316 314 316 305 311 311 297 296 294 292 300 294 301 300 303 307 314 310 311 317 316 317 317 318 314 317 315 319 313 311 308 304 309 309 304 300 302 294 301 309 304 300 296 294 293 300 308 312 317 315 317 318 318 317 316 316 316 316 316 315 314 314 314 313 313 312 312 312 312 312 313 312 311 311 311 311 311 310 311 310 309 309 310
314 314 312 314 311 311 310 293 310 304 296 298 294 288 296 295 300 303 301 304 310 308 313 309 310 309 304 312 310 312 313 314 316 312 308 311 307 303 302 296 299 306 308 302 301 293 297 302 302 303 312 314 315 317 317 317 316 315 314 314 315 315 314 314 314 313 312 312 312 312 312 312 311 311 311 311 310 310 309 310 310 310 310 310 309 309 310
310 309 306 305 300 304 298 290 307 299 292 296 298 298 299 296 300 301 301 311 310 308 313 314 312 311 308 313 315 314 312 309 316 307 304 306 303 304 300 298 304 304 299 297 299 300 300 298 304 306 312 313 314 316 316 316 315 314 313 312 313 313 313 312 311 311 311 311 310 310 309 310 310 310 310 310 311 310 308 307 308 308 308 308 308 309 309
308 301 299 294 291 296 296 291 295 292 302 303 301 302 301 302 304 304 311 314 312 313 311 313 314 314 310 313 310 308 312 312 306 306 308 306 300 298 304 307 305 299 298 298 293 292 296 300 303 305 311 314 316 315 315 315 314 313 312 310 311 311 311 311 311 310 309 309 309 310 310 310 309 309 309 309 309 308 308 309 309 309 309 308 307 307 309
308 308 302 300 294 297 305 293 296 301 304 304 305 306 305 306 309 310 313 315 313 316 316 317 316 315 311 309 311 311 312 311 305 308 309 301 300 302 306 302 296 298 293 291 293 297 299 302 304 312 316 316 315 314 313 312 312 312 312 312 311 310 310 309 308 308 309 309 309 308 308 308 308 308 308 307 307 308 308 308 309 309 309 307 308 308 308
297 305 305 292 291 297 296 301 306 306 307 307 307 309 310 311 308 308 313 316 318 317 316 315 313 313 311 315 314 307 308 308 304 305 307 303 305 301 295 298 297 299 300 298 297 302 302 305 308 314 316 315 313 311 311 310 311 311 310 309 309 308 307 307 307 308 309 309 308 308 308 308 307 307 306 306 307 307 308 308 308 309 309 309 308 308 307
310 300 297 296 302 302 302 305 305 302 304 307 307 307 307 306 307 309 315 317 316 316 316 316 312 314 306 308 308 306 304 308 299 299 305 302 298 293 294 291 295 293 301 302 301 303 304 312 315 315 313 312 311 311 310 311 310 309 308 308 307 307 308 308 308 309 308 308 308 307 306 306 307 306 306 306 306 306 308 308 308 308 308 307 307 307 307
301 300 305 302 302 303 305 306 303 300 304 306 305 305 307 307 308 311 317 315 319 318 316 314 315 308 306 307 298 303 302 306 304 300 301 298 300 300 298 294 297 297 300 304 304 306 308 312 314 312 311 310 311 310 310 309 309 308 308 307 307 308 308 309 309 308 308 307 306 306 306 306 306 305 305 304 305 306 307 307 307 307 307 308 307 307 307
310 304 304 311 303 301 302 297 298 299 300 302 304 306 309 308 311 314 317 317 317 315 311 308 308 305 300 298 296 294 296 309 303 301 300 300 303 301 298 297 300 302 304 306 308 310 313 313 312 311 311 310 310 310 310 309 308 308 307 307 308 308 309 309 308 307 307 306 306 304 305 304 305 305 306 306 305 305 305 306 306 307 307 308 308 307 307
299 297 301 306 308 306 305 305 305 303 304 307 306 309 309 307 311 316 319 318 315 310 306 311 308 302 296 295 301 306 309 303 301 303 300 303 306 302 301 302 303 305 307 306 308 311 311 312 313 312 312 310 310 310 309 309 308 308 308 307 308 308 309 309 308 307 307 306 306 305 305 306 306 306 306 305 305 304 303 304 305 306 307 306 306 306 306
Wind_Speed
19 20 20 21 21 21 21 21 21 21 23 7 5 4 3 2 5 3 4 5 6 6 5 2 2 5 5 3 3 1 2 5 4 5 7 3 4 3 5 7 2 5 3 2 3 3 4 4 5 6 8 8 7 6 6 3 4 7 3 3 4 3 4 4 6 3 2 1 4 2 2 5 10 9 9 9 13 12 11 11 9 9 11 11 8 10 2
18 20 20 21 22 22 21 20 20 18 16 5 6 4 1 2 1 3 2 2 3 7 2 3 4 5 5 2 7 4 7 8 6 7 8 7 5 6 5 5 7 4 4 2 2 3 3 3 2 5 2 5 4 5 5 5 2 4 5 4 4 6 3 6 5 6 7 7 7 6 4 9 10 9 6 6 7 6 7 6 5 10 11 11 11 12 6
18 19 20 21 21 22 22 20 19 18 16 7 4 3 1 1 2 0 3 3 3 1 4 2 3 4 3 3 5 3 4 5 6 7 8 6 7 2 6 5 2 4 1 3 2 4 3 5 4 5 5 7 4 6 7 6 3 3 6 6 3 4 2 5 8 9 11 10 10 10 12 9 1 2 3 4 9 11 9 12 9 6 7 11 10 9 7
18 18 19 20 21 22 22 21 20 19 16 9 4 3 3 4 4 3 3 1 5 4 1 3 2 4 2 3 4 1 4 5 5 6 5 7 5 6 3 2 2 3 1 3 3 3 3 1 4 2 4 4 5 6 5 6 6 4 3 5 5 2 1 2 5 5 3 5 5 4 3 3 7 3 3 1 6 5 8 8 10 11 9 9 10 10 5
18 18 19 20 21 22 23 22 21 20 15 8 4 3 3 0 2 1 2 3 3 4 2 3 2 2 2 1 2 3 3 3 4 7 2 6 6 3 7 6 1 3 0 4 6 4 6 7 5 4 2 4 3 3 4 5 7 2 4 2 3 3 3 4 6 7 7 6 8 7 3 4 3 1 2 2 4 6 8 10 8 5 9 10 6 8 10
18 18 19 20 21 22 22 23 23 20 16 8 4 2 1 3 2 1 3 3 2 4 5 3 3 3 1 4 2 1 1 3 3 3 5 3 5 4 4 5 5 5 5 1 3 4 6 2 5 3 3 2 1 3 3 6 5 3 1 2 4 4 3 3 4 7 7 7 8 7 6 4 5 4 3 1 2 5 10 6 3 5 8 5 2 9 12
18 18 18 20 20 21 22 24 25 23 19 4 5 3 3 3 3 3 1 2 4 4 5 2 2 4 2 3 1 2 2 5 5 4 3 2 4 6 4 6 6 5 3 3 5 3 3 6 3 4 3 4 2 1 3 4 6 4 1 2 3 3 4 1 1 6 6 7 7 6 5 5 5 4 6 3 2 3 1 1 4 3 3 4 7 6 3
18 18 17 19 20 20 21 23 25 25 24 7 3 5 3 2 1 4 2 0 3 3 3 2 3 3 1 2 4 2 1 3 3 3 5 1 3 1 5 6 6 6 5 3 3 6 7 5 3 3 2 4 3 4 5 5 3 5 5 3 4 4 4 3 2 5 6 6 6 5 4 1 6 8 8 7 4 5 4 4 5 4 0 3 2 6 6
17 18 17 17 19 19 21 22 24 27 22 2 5 5 6 3 3 4 2 4 3 2 3 3 1 2 3 2 4 2 3 5 5 6 5 5 5 3 6 4 4 4 7 8 8 6 4 3 4 2 4 4 4 5 5 6 4 5 5 5 3 3 3 5 5 6 7 3 2 2 1 0 1 6 9 11 9 6 7 5 7 5 2 1 3 6 6
17 17 16 16 17 18 20 20 23 26 25 4 5 5 3 2 0 3 4 2 2 3 3 2 5 1 3 3 5 0 5 5 2 5 3 4 5 4 3 3 2 5 6 9 8 5 4 5 4 4 5 4 5 5 5 7 6 5 5 4 4 4 4 7 6 8 8 4 5 5 6 6 6 6 8 8 8 8 5 5 5 5 5 3 4 3 6
16 17 16 15 15 16 18 19 19 23 14 8 6 6 6 5 3 2 3 3 5 3 4 4 4 5 4 4 6 3 5 3 0 4 4 2 5 3 2 1 3 5 7 7 6 2 3 5 5 4 5 5 4 3 4 7 7 6 6 4 2 4 5 4 2 7 5 5 6 5 4 8 2 5 4 6 7 8 9 8 6 5 4 4 3 5 3
16 15 16 15 13 15 16 17 16 16 15 5 4 4 5 5 5 4 3 5 4 3 5 0 2 5 5 5 3 4 5 3 4 1 5 3 4 2 2 2 5 3 5 3 3 5 6 4 4 3 4 3 4 4 5 6 6 5 5 6 5 3 4 2 1 6 6 3 4 7 8 4 6 3 4 4 4 5 5 5 4 4 2 5 3 1 3
15 14 15 15 13 13 15 15 15 14 15 8 5 5 5 3 4 4 4 5 3 7 6 5 4 4 6 6 6 6 6 6 5 4 4 2 3 2 3 3 3 5 3 2 4 4 4 3 2 1 2 1 1 1 4 5 6 6 5 6 6 4 4 2 4 4 1 6 7 7 5 7 3 4 5 6 4 3 4 2 4 3 5 2 2 2 3
15 15 15 15 13 12 14 14 14 14 14 12 5 4 4 5 5 4 3 4 3 2 1 6 6 7 7 6 6 7 6 6 5 2 4 2 2 3 3 2 4 3 2 2 2 4 4 3 5 4 6 4 4 4 3 1 4 5 6 6 5 5 5 4 4 3 7 6 7 5 4 5 4 2 5 7 6 7 6 2 4 5 1 3 3 4 6
15 15 14 15 13 11 13 14 15 15 15 15 6 4 3 4 4 4 3 5 3 4 5 6 8 8 7 6 5 5 4 5 6 5 4 2 1 4 4 3 2 2 1 4 4 4 4 1 5 5 4 4 4 3 0 1 2 3 4 4 3 3 5 4 5 3 5 6 7 7 6 7 5 6 4 3 4 5 3 5 3 4 2 3 5 5 6
14 14 13 14 13 11 13 14 14 13 13 17 6 3 1 3 4 4 4 5 2 7 6 3 6 8 6 5 3 2 4 4 3 4 5 3 2 4 3 1 1 1 3 3 2 4 4 5 4 3 3 1 4 3 1 2 2 4 1 3 3 2 2 4 7 3 6 6 7 6 5 1 5 6 5 6 5 4 1 4 3 4 5 2 4 7 7
14 13 13 13 12 11 13 15 13 13 10 12 7 5 1 4 4 4 4 3 4 2 6 4 3 4 4 5 4 4 4 2 3 3 4 5 3 1 2 1 1 2 1 3 4 5 6 6 4 3 2 2 2 1 2 1 4 2 3 1 2 3 2 3 7 6 5 6 6 5 1 2 6 7 7 8 5 4 3 4 3 6 6 4 1 5 9
14 14 14 13 12 12 13 14 14 12 12 10 8 6 2 2 3 4 4 4 4 3 3 3 6 6 3 2 2 5 2 2 3 1 1 4 2 3 2 1 4 3 4 4 3 4 2 3 4 5 2 4 1 2 0 1 2 4 4 4 3 1 0 3 4 4 3 2 6 2 5 6 8 8 8 5 4 4 6 3 4 8 8 6 3 3 6
13 14 14 12 12 12 11 13 13 13 13 10 10 6 4 1 3 4 4 3 4 2 5 1 3 4 3 1 3 3 2 4 3 3 3 5 4 3 2 2 4 2 4 2 4 3 3 3 1 2 1 5 3 0 2 1 1 1 2 3 4 2 1 2 3 4 3 1 5 1 7 5 8 7 6 4 4 5 2 5 5 7 8 5 4 2 4
13 13 13 12 11 11 11 12 12 12 13 10 8 5 3 1 1 3 4 4 3 1 4 3 2 1 2 2 4 4 5 4 2 4 2 1 4 4 4 5 4 2 4 3 4 1 4 4 3 1 3 4 2 2 2 2 1 3 3 2 4 5 4 2 1 1 3 4 5 4 2 6 10 13 4 7 5 5 5 7 7 5 5 5 3 2 2
13 13 12 11 10 10 9 10 10 11 12 10 9 6 3 3 1 2 3 4 4 3 4 2 1 1 1 1 3 4 4 1 3 2 2 3 3 4 3 1 4 2 1 3 3 4 2 3 4 1 4 3 4 4 1 2 3 4 3 3 3 4 5 1 2 3 4 3 3 3 6 5 8 9 6 6 5 5 6 6 6 5 4 1 0 0 1
12 12 12 11 10 9 6 8 9 10 11 10 11 5 5 3 0 2 1 3 4 4 5 3 3 3 2 3 3 3 4 5 4 5 2 3 2 3 4 1 1 1 2 2 2 3 3 1 1 3 5 4 3 1 2 4 1 5 3 3 3 4 4 5 3 4 4 5 6 5 4 4 5 5 5 4 5 4 5 5 5 6 3 3 1 2 3
12 12 12 11 9 9 6 7 8 9 10 11 9 4 5 4 2 3 3 4 4 4 3 3 3 2 1 2 2 3 3 3 2 1 3 3 3 4 3 3 3 1 1 3 5 3 3 3 2 2 1 1 1 3 4 4 2 3 3 3 4 2 2 1 5 2 2 3 5 2 3 4 4 4 4 5 6 6 5 5 4 4 4 3 3 7 9
12 12 12 11 10 7 5 5 7 8 9 8 8 5 4 4 5 6 3 3 3 2 4 2 5 7 7 7 5 3 2 3 1 3 3 3 5 4 3 1 2 3 1 2 3 3 2 2 3 1 3 4 2 5 3 3 2 3 2 5 4 3 2 3 3 4 3 2 3 3 4 3 5 4 5 4 5 6 6 5 5 5 4 5 6 7 9
11 12 12 11 10 7 2 4 6 8 8 9 8 5 5 5 1 4 4 2 4 5 5 6 5 6 4 3 2 4 3 2 1 2 2 3 4 6 3 5 2 3 4 3 2 2 2 3 4 4 4 4 3 2 4 5 3 1 5 3 4 5 2 4 2 2 4 4 4 4 4 3 4 4 3 5 6 7 7 6 5 5 6 6 6 5 7
10 11 12 11 10 3 2 3 6 7 8 8 7 5 4 3 3 3 5 3 3 3 5 7 6 4 2 6 4 2 2 2 2 3 1 1 2 2 5 5 4 2 4 2 2 3 1 2 3 1 3 3 1 5 0 3 4 1 5 3 5 5 4 2 2 4 1 5 5 5 4 4 5 7 7 6 5 6 8 7 7 6 6 6 4 3 2
10 10 11 11 8 2 2 3 5 7 7 7 6 4 5 4 3 4 4 4 2 4 5 6 5 5 4 4 2 1 2 2 4 4 4 3 4 5 5 6 6 5 4 4 0 0 1 2 3 2 1 3 1 2 1 3 3 3 6 4 3 4 6 2 3 5 6 1 5 5 4 4 6 7 7 6 6 7 8 8 8 7 5 3 3 2 1
9 10 10 10 6 2 3 4 6 7 6 7 6 5 4 4 1 2 3 3 4 4 2 6 6 5 2 3 2 1 2 4 4 4 4 5 5 5 6 6 5 5 4 4 5 4 4 6 3 3 1 3 4 4 2 1 1 5 6 4 5 6 2 2 5 5 3 6 4 4 4 6 6 6 6 7 6 7 9 9 8 8 7 5 3 2 1
9 9 8 8 3 2 2 4 6 7 8 8 4 4 5 5 3 2 2 2 3 4 4 2 3 5 7 4 2 4 3 5 5 5 5 6 5 5 4 3 2 2 2 0 2 0 1 2 2 1 1 3 4 2 3 6 6 5 2 6 3 3 3 4 5 4 2 4 4 3 3 2 6 5 4 5 5 5 8 8 8 8 8 7 7 5 4
8 8 7 5 3 3 2 3 5 6 6 4 3 5 4 4 3 2 1 2 3 3 4 5 7 5 4 3 3 3 5 7 6 6 6 5 5 4 4 3 3 0 1 1 1 2 2 1 2 3 2 0 3 1 4 2 4 2 6 3 3 2 1 1 2 3 2 5 4 4 5 6 6 5 4 5 5 5 6 7 7 6 6 6 7 6 6
8 7 7 4 4 2 2 3 4 5 7 3 4 4 5 5 4 2 1 2 2 4 3 4 2 4 4 3 1 3 6 7 7 6 5 4 4 4 3 1 2 2 3 3 2 2 1 3 3 3 2 1 3 3 3 3 5 2 5 4 4 4 4 3 2 2 3 4 4 4 4 4 3 4 5 4 4 4 5 5 6 6 6 5 5 5 4
7 6 6 4 4 2 2 2 3 4 3 4 4 2 4 4 3 4 3 4 3 4 4 6 3 5 4 4 3 2 4 6 6 5 4 3 4 2 3 2 2 1 2 1 2 2 2 2 3 3 3 3 3 4 3 5 6 2 5 4 4 3 3 4 4 3 3 3 4 4 4 3 0 5 0 3 3 3 4 4 4 4 3 3 4 5 5
7 7 6 5 4 3 3 3 3 3 3 7 14 13 14 13 12 9 5 3 4 3 3 4 5 4 4 5 6 5 5 6 6 6 4 1 3 4 3 2 3 3 2 3 4 2 1 2 1 4 3 3 3 3 5 6 3 2 2 4 5 5 5 3 3 4 4 3 3 5 5 3 3 2 4 3 3 3 2 2 3 1 2 2 4 4 4
8 7 5 4 4 3 3 3 5 6 7 5 4 5 5 4 5 5 4 3 3 1 2 4 4 6 3 5 7 6 6 7 7 7 6 2 0 4 3 4 3 4 3 4 1 3 2 3 5 2 3 5 4 5 7 4 2 3 4 4 6 6 5 5 5 5 4 4 1 1 1 2 3 3 3 3 3 2 1 1 2 2 2 2 3 4 4
7 6 5 5 4 4 4 4 3 4 3 4 1 6 5 3 2 5 4 3 3 4 3 3 4 5 5 5 7 7 4 6 7 6 6 4 1 3 4 6 3 5 3 1 4 4 4 3 1 4 5 3 4 5 5 2 3 4 5 5 7 6 6 7 7 6 4 3 3 2 2 3 4 4 2 1 1 1 1 1 1 3 2 2 2 3 4
7 4 4 4 4 5 2 3 3 3 4 4 4 6 8 7 6 3 2 2 3 3 3 3 3 7 6 7 7 5 4 6 2 3 2 4 4 2 4 3 7 1 3 3 5 3 4 3 3 6 4 5 6 5 1 1 3 5 6 6 7 8 7 7 5 6 5 4 3 3 3 3 4 3 2 1 1 0 1 3 1 2 2 2 1 2 2
4 2 4 6 4 3 4 2 2 3 1 4 5 8 6 5 3 3 4 3 3 1 4 2 6 7 6 4 2 4 6 8 5 6 5 6 5 3 4 4 5 2 3 5 5 6 2 2 5 6 6 7 4 1 1 3 4 5 6 5 6 7 5 4 4 6 6 6 6 5 5 5 4 3 3 3 2 2 3 3 2 3 3 3 3 3 2
3 5 5 3 4 4 3 4 2 4 5 2 2 4 4 5 3 4 3 5 2 2 4 3 6 2 1 4 3 5 6 4 5 6 5 3 4 4 3 4 0 2 5 3 2 3 3 3 5 6 7 5 4 4 4 4 4 4 4 5 6 6 6 5 6 7 7 6 7 6 6 6 6 5 4 4 4 4 3 2 3 3 4 4 4 4 4
5 4 3 4 4 4 1 4 3 1 3 3 4 3 3 2 3 3 4 2 2 5 3 5 7 5 5 7 3 3 4 3 7 6 6 5 5 4 3 6 4 3 2 4 4 4 5 5 4 5 7 5 6 6 7 7 5 4 4 4 5 6 6 6 7 8 8 7 5 5 6 6 7 6 4 4 3 3 3 4 4 4 4 5 6 6 6
3 4 4 3 4 3 4 3 1 3 4 4 3 3 2 3 3 2 3 2 3 3 3 6 5 5 6 7 6 6 3 5 7 7 6 4 0 3 3 3 3 4 4 6 3 5 5 5 3 3 6 3 3 5 4 5 6 6 5 5 5 6 6 5 5 2 1 1 1 1 1 1 0 2 3 4 4 5 5 5 5 5 5 6 5 6 7
4 3 3 3 4 4 3 3 4 4 3 4 3 2 1 2 4 0 3 5 5 3 4 3 4 5 6 5 5 5 4 2 1 3 2 4 2 2 4 4 2 4 5 5 4 3 4 5 4 4 4 3 4 4 4 4 5 6 6 6 5 5 6 5 5 4 4 3 3 2 3 2 3 4 4 4 5 5 6 6 6 6 6 6 7 8 8
1 2 3 2 2 3 4 4 4 3 2 1 2 1 2 2 1 3 4 4 5 4 6 5 6 7 8 9 5 2 4 1 2 3 4 4 4 4 3 2 3 4 3 3 3 3 3 3 3 4 3 3 5 5 4 5 5 7 7 7 6 6 6 6 5 4 4 3 3 3 3 4 4 4 5 5 6 6 7 7 8 8 9 8 8 8 8
2 3 3 3 4 4 4 3 4 2 1 1 1 1 2 2 5 5 5 4 0 3 4 3 2 4 5 4 4 1 2 2 4 4 5 3 3 3 4 3 3 4 2 3 4 4 4 3 3 5 4 6 5 5 4 4 6 6 7 6 6 6 6 6 5 5 4 4 4 4 3 4 5 5 5 6 7 8 8 8 8 8 8 9 10 11 11
1 3 3 4 4 3 3 2 3 2 0 2 2 3 6 6 6 5 4 5 5 5 7 7 7 8 7 5 4 5 4 3 2 2 2 3 4 5 4 3 6 2 2 4 4 4 5 6 6 2 5 5 4 5 6 6 7 7 7 7 6 6 6 5 5 4 4 3 3 3 4 5 6 6 6 7 8 9 9 9 9 10 11 11 11 11 10
4 3 2 3 1 1 0 0 3 3 4 4 3 5 5 7 5 7 4 4 3 4 8 6 7 7 7 6 4 4 3 4 3 5 4 4 5 4 5 3 3 2 4 6 6 5 4 6 5 4 5 5 6 6 7 7 7 8 8 8 7 7 6 6 4 3 2 3 4 4 5 6 6 7 8 8 8 9 11 11 11 10 10 11 10 10 10
4 2 2 3 0 2 2 1 2 2 5 4 5 5 6 4 2 3 4 1 3 4 7 7 7 6 7 6 4 4 4 4 6 5 4 4 4 6 2 3 1 6 6 6 5 5 6 5 2 4 6 6 8 8 8 7 7 8 8 8 7 6 5 4 2 2 2 3 3 4 5 6 6 7 8 8 9 9 9 9 9 9 9 9 9 10 10
2 0 0 1 2 2 3 2 5 5 2 4 5 4 4 1 2 2 1 1 3 4 6 6 6 5 7 7 4 4 4 3 4 3 4 5 5 3 0 5 6 6 6 5 6 7 6 4 2 4 7 8 9 9 9 8 8 8 7 6 6 5 4 3 2 2 1 1 2 3 4 5 6 7 8 8 8 8 8 8 8 9 9 10 9 10 10
1 0 1 2 3 3 5 7 4 3 3 3 1 2 1 2 3 5 5 3 2 5 7 7 7 7 6 3 3 4 5 5 5 4 4 2 1 3 2 5 7 6 5 6 8 6 4 2 4 6 6 8 9 10 9 9 9 8 7 6 6 5 4 3 2 2 1 2 2 3 4 5 6 7 7 7 8 7 7 7 8 8 9 9 9 9 10
1 1 2 2 2 3 4 2 3 6 5 4 3 3 3 4 4 4 4 3 4 5 7 7 6 6 4 5 5 5 5 5 5 3 3 4 5 4 5 3 6 6 6 6 5 3 1 5 6 7 8 9 9 8 9 8 9 8 7 7 6 5 4 3 2 2 1 1 1 3 4 5 6 6 7 7 7 7 6 7 7 7 8 9 9 9 10
2 2 1 1 3 4 1 0 3 5 5 5 5 5 4 5 5 4 4 5 4 4 4 6 5 2 4 1 0 3 1 4 4 2 6 8 7 6 7 10 7 6 6 5 5 4 2 5 6 7 8 9 9 9 9 9 8 7 7 7 5 4 4 4 3 3 1 1 2 2 4 5 5 5 6 6 6 6 6 6 6 6 6 7 7 8 8
2 1 3 3 5 1 4 4 4 4 5 6 6 4 5 6 5 4 4 5 6 6 5 6 5 3 3 3 2 3 2 4 4 7 6 7 6 7 9 9 7 5 5 2 1 1 3 5 6 7 9 9 9 9 9 9 9 8 7 6 6 5 4 4 4 3 3 2 1 1 3 3 4 4 4 3 4 4 5 3 2 4 4 4 4 5 4
1 2 4 5 5 5 6 3 3 4 4 2 1 3 2 3 3 2 3 4 7 8 7 5 3 3 2 4 5 3 3 3 3 5 8 7 6 8 9 8 7 5 3 2 2 4 4 4 6 8 9 10 10 10 10 9 9 8 7 6 6 5 5 5 4 4 3 2 2 2 2 2 2 1 0 2 2 2 2 2 3 3 3 3 2 3 4
Wind_Direction
347 347 346 345 345 346 345 346 346 350 339 332 1 293 225 293 51 57 341 347 303 285 99 125 112 74 81 173 137 353 75 10 33 2 13 34 12 60 45 22 358 62 7 61 104 21 92 8 72 89 96 69 35 12 346 314 262 264 138 198 101 270 239 238 256 264 306 136 108 167 278 233 224 230 256 225 214 210 228 227 232 230 218 224 217 239 205
347 348 347 346 345 345 346 345 347 348 4 333 306 269 28 40 44 119 90 297 277 269 115 118 90 102 120 102 82 60 41 20 35 28 38 11 24 30 51 94 34 41 7 36 74 349 147 69 125 124 58 87 23 20 3 315 306 332 25 315 81 254 154 286 238 212 179 160 167 164 175 217 225 227 187 290 298 274 263 297 290 247 225 220 223 233 192
347 348 348 347 347 345 343 346 344 348 349 332 296 314 25 137 136 204 55 5 302 353 36 25 108 98 96 78 80 104 99 33 21 5 34 17 23 335 60 32 13 67 7 88 52 45 347 125 52 75 87 85 61 56 14 0 21 11 24 320 307 262 300 262 245 224 203 189 191 191 187 182 142 219 288 232 254 237 223 227 222 240 243 226 222 228 102
347 348 349 349 348 345 343 343 345 344 348 325 265 318 243 201 214 138 134 89 109 78 12 351 49 126 142 133 68 345 95 110 57 337 66 14 34 32 6 50 330 60 169 90 82 85 46 252 133 194 124 109 84 27 20 30 19 33 353 299 260 239 192 266 260 269 346 45 58 38 16 190 206 129 241 204 212 244 247 250 239 226 218 228 231 252 134
347 348 349 350 350 346 343 342 342 345 344 333 296 273 311 297 290 18 129 144 98 101 124 107 273 77 347 4 349 81 38 68 104 5 28 32 0 28 23 14 350 57 109 74 86 60 98 97 132 65 121 82 58 43 8 55 45 315 239 261 271 226 194 91 95 91 85 90 79 79 34 96 93 124 121 170 193 213 228 226 249 294 244 236 203 201 222
348 348 350 352 350 348 345 342 341 342 346 309 265 274 347 227 88 336 13 301 121 176 107 19 92 85 263 69 285 45 74 62 56 115 64 327 12 322 83 41 51 38 32 334 104 98 92 74 94 136 69 240 164 173 61 39 36 264 102 258 282 266 198 129 133 101 99 83 96 102 89 66 73 53 38 89 159 195 225 249 344 330 244 279 221 194 221
348 348 350 354 350 349 348 344 341 340 342 313 277 274 87 345 92 53 275 257 59 31 63 22 63 101 18 107 290 105 40 80 43 4 355 15 42 347 74 45 42 51 51 352 93 354 212 115 83 19 52 35 319 353 194 61 15 15 65 63 14 297 183 35 293 137 132 123 113 114 105 101 87 62 45 47 82 112 86 105 25 355 356 283 214 220 227
348 347 349 353 351 351 350 347 344 340 338 300 286 24 302 101 246 141 176 41 104 110 167 161 204 114 196 224 75 15 33 87 120 72 341 92 77 7 78 64 48 50 62 65 64 50 29 35 94 86 308 139 25 84 27 349 6 12 31 338 82 293 148 253 244 215 144 133 127 117 106 23 80 70 48 48 55 77 52 45 26 336 68 357 199 161 127
348 346 347 352 353 355 352 351 351 339 343 13 21 57 12 28 3 336 244 172 94 156 172 192 211 164 160 153 121 147 86 86 68 78 23 24 68 52 68 56 82 58 79 69 69 51 47 45 55 50 352 47 37 330 53 337 335 2 23 11 344 281 210 225 238 226 194 90 323 148 161 277 114 61 38 34 30 35 38 31 17 334 33 358 164 186 159
345 345 347 350 357 357 355 356 354 349 329 353 357 43 0 282 167 264 290 220 124 216 145 161 232 168 66 26 130 259 113 110 192 118 50 64 45 26 6 27 299 99 63 49 33 28 56 68 73 71 83 79 81 58 47 26 15 353 6 349 350 1 274 238 228 236 232 178 312 319 279 281 198 49 32 13 40 38 77 63 38 23 332 241 225 71 52
344 345 346 350 358 359 359 357 360 357 347 29 6 27 4 351 352 270 253 237 160 216 203 172 274 65 136 148 133 151 125 147 311 292 128 171 87 35 10 358 324 74 46 21 6 355 60 95 108 130 118 101 87 87 73 57 41 14 356 310 352 334 304 253 264 241 236 205 257 282 253 249 157 39 23 357 17 13 27 38 42 43 356 40 314 5 41
346 344 346 348 356 3 1 359 359 5 355 345 311 4 16 324 279 276 261 235 149 166 227 204 95 144 180 139 162 137 128 136 118 324 121 87 72 20 313 125 271 107 50 18 105 113 112 116 129 125 107 103 92 78 47 41 52 29 14 355 320 301 301 260 221 243 237 195 241 241 228 210 74 48 28 334 341 350 18 75 60 50 3 353 318 159 211
347 345 346 347 353 5 3 358 360 1 1 335 313 7 7 345 299 321 306 275 188 180 212 137 128 153 140 146 120 112 106 110 104 91 86 96 105 94 32 18 33 59 334 55 167 202 219 152 134 175 135 212 349 343 51 48 32 26 30 18 340 314 273 247 227 257 311 231 213 226 231 82 115 72 27 13 286 341 269 131 36 35 6 359 337 82 166
345 345 344 345 347 2 4 360 357 359 354 344 308 1 347 342 328 304 310 274 190 143 100 125 159 153 156 143 130 129 136 123 114 123 112 52 55 70 98 43 39 358 350 264 214 226 198 210 200 207 187 222 207 232 74 18 33 16 22 17 360 337 289 260 239 188 245 230 225 235 76 174 141 132 35 11 9 357 358 322 88 14 10 24 73 122 143
343 345 344 341 341 358 4 359 356 355 355 340 296 303 356 357 326 313 303 285 215 144 193 206 158 156 151 139 154 151 153 138 175 126 91 125 139 50 34 55 28 347 217 245 203 205 272 279 226 241 196 225 244 103 220 214 113 48 8 2 349 359 302 13 279 185 259 247 231 218 216 228 126 67 38 13 356 332 331 280 123 16 47 79 111 132 155
342 344 343 341 342 356 358 358 357 353 4 342 296 306 327 5 305 278 301 297 270 183 178 53 128 154 152 152 172 238 147 179 112 147 160 151 95 145 111 38 63 267 218 209 277 238 220 230 253 254 275 335 49 295 181 340 212 120 13 328 323 317 239 264 263 244 225 240 240 221 235 70 50 37 353 354 346 340 149 262 148 5 335 12 134 141 155
341 342 344 342 343 351 353 356 355 355 1 7 332 309 305 27 338 327 305 264 261 8 81 121 136 154 148 145 178 189 202 185 183 218 156 142 113 36 104 115 165 253 197 221 185 216 203 223 263 277 109 68 266 342 293 275 308 147 134 219 325 310 252 233 224 250 237 252 239 235 295 83 35 7 350 349 347 306 258 242 139 358 338 334 338 158 159
337 340 342 343 339 344 348 352 354 352 352 356 325 301 307 69 336 308 264 291 274 144 111 138 178 183 185 63 143 86 160 148 190 228 309 102 197 153 91 220 179 132 275 247 192 212 220 208 211 223 130 75 4 264 269 69 299 15 351 353 351 346 252 257 273 248 131 254 250 178 132 88 7 356 343 358 326 311 254 253 22 332 324 317 308 185 167
333 336 338 341 337 339 345 349 352 352 352 0 326 261 231 324 341 304 299 270 273 194 109 79 344 337 11 2 49 114 11 354 356 244 145 186 113 66 322 62 317 175 205 208 225 221 196 108 312 288 199 141 199 298 91 229 21 87 298 256 199 175 290 174 257 257 279 262 254 186 76 34 333 337 347 348 291 232 308 19 311 304 306 298 286 240 173
331 330 333 336 333 334 340 344 350 353 348 2 344 305 337 357 39 345 323 320 311 278 128 139 215 205 148 226 163 180 159 194 231 294 270 42 123 209 206 190 163 244 166 239 207 15 263 153 114 186 233 139 134 53 217 139 337 336 2 344 301 20 291 42 13 57 241 236 254 234 201 61 4 327 253 12 323 32 355 328 324 323 303 295 269 298 152
325 327 330 332 331 332 341 348 352 350 349 352 342 308 269 144 297 347 288 288 298 229 145 96 242 279 194 297 5 359 305 358 152 262 73 21 65 245 239 68 82 253 129 218 253 163 264 149 174 214 18 348 114 225 43 88 163 120 290 338 336 21 284 94 95 352 311 222 241 45 37 12 9 357 42 28 29 340 332 325 329 347 333 322 307 67 119
326 329 330 329 328 327 342 345 346 347 347 346 327 284 265 108 53 24 314 269 270 315 27 34 331 306 342 333 333 331 349 25 37 352 278 133 174 295 0 110 113 314 58 264 175 151 209 33 88 209 186 148 186 288 49 247 179 112 168 259 205 46 355 359 356 49 327 15 49 65 47 26 34 28 42 17 6 349 330 316 306 316 22 340 30 56 57
328 330 331 328 322 326 338 340 344 342 346 347 334 297 312 343 342 347 252 257 223 264 258 220 201 187 159 87 44 3 349 4 351 23 335 290 160 206 231 213 163 76 112 297 322 358 80 205 194 359 198 175 298 151 188 280 339 159 181 110 15 97 355 324 279 102 94 88 26 81 87 47 55 78 48 19 8 13 350 359 355 21 6 1 81 106 98
330 331 330 327 323 322 335 343 339 339 342 345 328 308 305 329 319 310 228 249 301 231 181 215 194 183 172 152 137 143 177 159 310 351 343 305 278 153 188 277 46 168 173 26 342 320 74 336 39 260 260 90 253 241 234 201 210 64 254 171 162 111 168 233 266 68 250 134 108 94 59 55 49 78 104 69 42 26 16 39 37 37 37 71 105 124 126
326 329 326 327 325 325 344 341 337 333 339 338 322 272 258 259 274 312 300 263 193 214 215 164 210 62 71 64 151 172 89 22 259 245 224 221 274 295 40 98 65 336 119 123 218 198 209 213 169 207 233 96 278 270 69 293 128 193 266 110 177 163 179 256 249 272 274 79 115 93 81 74 47 35 60 57 50 46 46 54 60 60 63 77 104 128 139
320 326 326 326 326 317 337 339 333 332 332 343 322 306 298 330 354 274 273 274 291 283 247 204 145 136 126 175 162 54 7 260 208 208 290 354 302 317 121 135 115 60 103 144 208 250 186 227 273 297 275 134 270 287 312 22 21 77 285 25 37 65 188 268 95 251 114 136 141 136 128 106 83 74 62 50 43 54 59 62 70 74 78 86 74 23 102
314 321 325 324 319 294 331 328 328 333 334 332 303 281 273 287 288 301 324 344 273 187 241 241 136 132 169 173 86 193 178 222 181 159 138 126 130 128 136 139 134 147 161 148 139 308 226 303 260 233 245 61 221 323 349 206 241 226 237 142 158 204 236 115 236 242 243 304 117 165 223 165 105 74 63 61 64 67 71 67 66 67 72 63 70 69 37
309 316 321 326 313 293 321 328 330 330 342 324 278 264 259 268 297 307 291 300 295 312 274 213 186 137 84 181 112 199 180 203 205 150 114 117 122 129 134 137 157 171 173 192 186 202 214 232 171 63 122 123 224 180 207 35 258 251 256 195 171 241 332 245 253 284 10 54 80 65 87 82 72 82 72 59 53 64 65 64 64 63 58 60 63 44 10
303 310 316 315 272 264 309 327 332 331 337 311 272 255 230 231 230 210 258 281 290 282 287 324 44 174 204 126 133 183 174 203 193 170 138 130 125 120 119 117 147 111 137 170 21 38 235 48 39 221 71 48 281 193 175 223 212 241 65 93 175 33 26 284 331 333 94 71 74 47 345 92 114 92 73 67 39 52 65 58 60 60 59 62 56 37 27
295 306 313 303 245 246 276 326 332 336 334 295 237 234 225 170 189 197 26 319 296 301 257 205 206 169 84 154 142 145 165 188 184 171 166 151 143 133 118 137 122 153 21 30 231 206 97 107 103 86 106 307 274 16 250 267 267 108 129 143 100 134 163 71 20 312 58 77 77 70 93 103 111 100 79 71 59 43 53 53 42 41 47 40 46 50 47
289 299 302 274 226 242 280 322 328 323 275 255 241 217 216 201 129 159 56 294 315 281 283 278 249 93 175 92 225 143 167 176 179 161 138 125 119 130 118 135 95 247 187 166 227 55 226 195 180 124 133 102 310 256 285 274 257 216 126 144 166 165 174 134 101 85 100 121 106 112 120 114 118 139 106 79 70 60 69 69 72 59 36 39 54 41 38
282 289 291 258 234 256 283 308 329 305 278 250 252 331 26 7 28 12 0 297 287 249 244 212 182 203 174 166 163 172 189 163 156 152 144 173 145 137 132 269 130 73 338 292 56 213 231 27 281 156 209 128 238 266 257 260 262 317 124 160 162 164 150 158 148 134 138 147 166 186 196 183 228 297 251 90 78 65 58 61 52 55 61 48 60 58 57
281 289 280 241 238 254 275 305 292 282 274 316 311 277 262 259 266 266 255 258 241 266 300 255 239 167 201 130 139 167 178 182 190 195 163 253 176 191 164 158 159 150 76 253 187 255 76 241 231 228 114 139 232 243 255 254 275 61 160 159 169 173 184 169 184 168 180 190 240 268 277 260 177 115 93 102 84 73 68 36 33 17 35 40 51 44 44
277 278 260 234 242 260 282 303 279 260 254 263 216 164 122 156 188 211 250 239 282 288 264 254 208 208 169 124 208 148 203 205 186 196 191 107 158 218 181 187 186 228 157 260 145 230 183 253 241 255 138 212 231 257 251 246 260 236 189 178 172 177 186 187 193 199 198 196 204 316 32 77 116 126 150 141 129 109 54 26 359 2 8 11 29 28 17
277 264 244 250 257 281 294 275 225 212 208 204 141 93 91 68 50 158 219 287 237 191 207 220 269 214 179 181 220 162 190 220 201 200 224 140 248 238 178 225 157 238 151 292 240 248 245 232 353 234 230 160 207 232 247 252 183 178 182 188 181 182 185 203 207 205 189 169 186 171 148 159 180 199 197 197 139 27 354 5 10 327 337 4 6 10 4
275 269 260 262 276 260 214 178 231 205 201 194 129 110 127 152 169 193 226 247 307 302 236 199 216 230 220 206 204 149 182 212 171 157 197 157 179 150 239 246 232 185 63 220 256 218 243 119 198 244 156 214 231 237 255 190 209 192 197 202 187 197 205 218 217 187 170 168 180 173 183 194 228 212 203 212 255 242 318 305 314 326 321 319 358 342 321
241 243 255 255 243 197 214 183 136 249 46 55 89 127 164 202 176 204 194 207 171 282 292 262 227 228 236 240 90 125 192 200 181 201 182 207 211 173 213 212 246 119 208 224 234 239 141 93 257 258 222 237 257 251 231 199 211 207 204 202 193 203 206 205 184 178 175 174 181 192 200 212 204 209 217 230 219 225 270 279 315 310 295 297 301 297 312
189 247 254 223 212 207 162 173 161 91 103 65 167 168 176 216 199 175 187 208 146 223 217 242 252 236 60 254 205 123 208 191 165 207 192 199 200 195 203 240 128 191 240 224 133 67 135 206 222 253 264 254 264 219 199 190 203 203 202 202 197 196 190 173 169 184 193 196 199 202 202 216 226 213 229 223 214 236 252 280 279 285 284 279 283 290 284
229 231 232 222 241 194 160 109 68 269 235 148 238 219 178 186 209 203 184 157 177 207 184 231 231 224 215 220 169 118 288 199 194 203 212 167 235 184 196 225 139 242 247 243 163 187 232 214 238 249 258 244 242 234 221 208 195 181 185 190 196 190 180 182 189 204 218 236 268 234 231 240 240 233 213 229 220 238 247 245 249 255 262 268 269 271 274
211 215 201 188 224 89 68 107 212 203 203 192 181 255 205 181 222 188 138 204 207 181 156 217 218 216 214 224 196 180 157 229 205 202 196 151 25 264 131 247 140 237 234 246 142 167 260 258 212 234 273 233 210 120 144 181 191 179 177 175 178 179 178 185 179 183 218 86 104 113 154 193 287 251 218 227 239 246 242 245 248 255 258 264 269 274 275
213 222 212 194 105 116 118 148 185 207 201 200 176 210 238 204 219 176 198 210 222 174 194 218 156 200 199 230 237 206 122 276 332 334 239 172 96 272 207 220 123 252 248 246 124 207 228 252 243 236 268 90 118 133 145 155 175 168 167 164 159 161 167 173 171 174 185 181 181 179 205 216 221 231 244 254 260 260 263 267 264 255 258 261 258 257 267
24 333 11 4 73 117 153 174 194 173 180 234 227 192 214 255 161 206 239 231 194 181 170 195 190 199 183 192 202 159 127 329 260 211 210 188 156 235 222 136 179 249 246 68 107 211 232 247 247 255 232 130 121 128 157 157 157 161 157 158 156 161 167 172 173 169 184 194 212 217 222 234 245 250 258 264 263 264 266 265 263 260 261 269 274 277 273
253 257 276 173 155 174 182 181 179 221 180 162 171 202 189 206 211 219 189 218 284 255 137 183 81 66 70 170 115 31 107 142 219 182 229 173 143 235 213 202 206 229 214 113 227 230 216 231 243 257 124 131 144 152 156 156 152 153 150 152 153 161 167 172 183 187 185 207 221 236 247 250 257 262 266 265 264 264 261 260 263 268 269 270 273 275 277
215 231 207 181 163 151 202 202 195 147 173 216 194 200 195 212 194 196 221 185 166 188 160 183 170 191 159 193 183 140 153 169 236 202 180 158 196 192 209 210 224 79 58 230 226 233 237 237 248 278 105 127 135 148 147 148 147 142 145 155 155 155 166 165 169 182 188 195 222 245 260 265 267 268 264 260 261 266 270 272 272 273 275 275 273 272 272
169 159 180 172 153 150 142 239 209 198 219 195 220 243 208 223 188 194 218 108 200 171 163 190 167 189 147 147 160 150 206 157 147 228 180 188 214 212 215 234 110 149 223 242 238 244 235 253 217 208 164 164 153 151 153 154 156 154 148 149 157 160 168 171 175 188 211 230 259 262 265 265 267 265 267 271 271 272 275 278 281 280 276 274 274 274 272
186 167 165 143 47 256 216 196 150 218 236 212 210 219 237 250 284 215 84 138 165 152 171 163 168 161 147 165 211 153 170 163 179 203 176 211 220 213 180 43 248 244 239 246 250 245 236 255 179 158 149 156 147 148 150 150 149 146 152 156 157 159 157 166 177 221 249 261 267 267 276 280 279 279 275 276 278 279 277 277 275 273 278 279 277 275 274
164 142 257 240 181 189 216 214 204 224 256 218 229 234 252 283 348 7 76 146 160 151 145 163 170 161 157 165 161 149 193 183 196 148 207 210 207 103 59 230 226 231 242 245 242 242 244 220 183 112 131 140 142 144 146 147 152 158 156 147 153 154 155 170 184 209 226 270 284 284 286 283 282 284 288 285 282 279 277 276 278 277 275 274 278 278 278
181 358 234 208 201 178 201 222 241 242 230 259 230 211 314 349 242 201 175 187 164 166 160 148 158 151 170 159 235 180 181 200 191 178 224 214 191 226 210 231 241 242 233 227 232 234 242 198 128 124 134 143 146 147 150 153 156 155 152 154 152 152 159 166 177 179 219 262 280 287 288 286 290 289 285 285 285 283 285 284 284 285 284 285 282 280 278
269 196 200 234 230 202 224 233 232 244 227 201 210 218 210 214 221 177 162 176 180 174 170 195 163 198 161 159 197 168 190 172 207 180 180 210 208 191 188 223 220 236 223 228 258 259 293 86 103 122 136 144 148 151 151 157 155 156 153 152 147 146 153 159 164 159 196 255 314 315 309 308 299 291 290 289 282 284 292 301 301 294 284 280 279 282 281
212 201 225 239 210 214 173 334 247 251 216 199 200 211 206 221 211 179 151 183 171 155 138 44 351 36 33 15 155 237 219 182 213 182 214 217 222 228 231 246 225 222 236 202 218 232 128 117 126 136 145 147 151 152 154 150 148 146 144 139 137 142 147 154 155 150 144 59 1 335 313 303 300 299 295 294 297 305 299 290 287 282 284 286 289 288 289
241 265 256 243 256 208 149 217 224 232 209 200 202 187 198 206 208 160 170 183 175 173 191 190 172 156 153 179 177 193 205 174 210 207 215 224 211 227 232 232 238 237 255 287 24 34 116 136 147 146 148 151 153 153 147 146 146 144 142 139 139 140 140 141 142 133 112 100 73 323 311 317 314 302 292 290 293 277 268 268 308 315 316 320 323 315 317
193 212 223 206 223 253 258 293 299 291 316 3 204 140 200 206 168 137 175 208 187 200 203 135 165 177 162 197 198 197 125 183 236 211 224 224 216 225 233 244 254 259 270 251 148 127 126 135 143 150 153 151 151 148 147 145 145 144 145 144 144 143 145 142 131 119 115 98 61 339 326 324 307 280 287 274 272 293 341 9 12 357 3 2 15 20 25